Flag for Germany Weather past 2 weeks in Bühl, Baden-Württemberg, Germany

54 °F


Feels Like: 54 °F
Forecast: 39 / 47 °F
Wind: 2 mph from North

Location: Karlsruhe - Baden Wurttemberg

Current Time: Oct 13, 2015 at 3:50:11 PM

Latest Report: Oct 13, 2015 at 3:20 PM

Visibility: 10 mi

Pressure: 29.95 "Hg

Humidity: 63%

Dew point: 41 °F

Location of BühlLocation

Historic Weather in Bühl — Graph


Bühl temperature yesterday

Maximum temperature yesterday: 55 °F (at 1:50 PM)
Minimum temperature yesterday: 37 °F (at 7:20 AM)
Average temperature yesterday: 47 °F

Past Weeks' High & Low Weather Summary

High72 °F (Oct 3, 3:50 PM)100% (Oct 13, 4:50 AM)30.48 "Hg (Oct 13, 4:50 AM)
Low36 °F (Oct 13, 4:50 AM)28% (Sep 28, 5:20 PM)29.68 "Hg (Oct 6, 8:50 AM)
Average55 °F69%30.08 "Hg
* Reported Sep 28 2:20 PM — Oct 13 2:50 PM, Bühl, Weather by CustomWeather, © 2015

Note: Actual official high and low records may vary slightly from our data, if they occured in-between our weather recording intervals... More about our weather records


Bühl weather history for previous 24 hours

Time TempWeatherWind HumidityBarometerVisibility
2:50 PM
Tue, Oct 13
52 °FSunny.3 mph72%29.95 "Hg10 mi
2:20 PM52 °FClear.2 mph72%29.95 "Hg5 mi
1:50 PM50 °FClear.2 mph76%29.95 "Hg5 mi
1:20 PM48 °FClear.3 mph76%29.95 "Hg6 mi
12:50 PM46 °FPartly sunny.2 mph82%29.95 "HgN/A
12:20 PM46 °FBroken clouds.2 mph82%29.95 "HgN/A
11:50 AM45 °FScattered clouds.1 mph87%29.95 "Hg4 mi
11:20 AM43 °FBroken clouds.2 mph87%29.95 "Hg5 mi
10:50 AM43 °FBroken clouds.1 mph93%29.95 "Hg4 mi
10:20 AM41 °FPartly sunny.2 mph93%29.95 "Hg4 mi
9:50 AM41 °FPassing clouds.5 mph93%29.95 "Hg5 mi
9:20 AM39 °FPassing clouds.1 mph100%29.95 "Hg4 mi
8:50 AM37 °FScattered clouds.2 mph100%29.95 "Hg4 mi
8:20 AM37 °FFog.3 mph100%29.95 "Hg3 mi
7:50 AM37 °FPassing clouds.3 mph100%29.92 "Hg4 mi
7:20 AM37 °FPassing clouds.3 mph100%29.95 "Hg5 mi
6:50 AM36 °FClear.1 mph100%29.95 "Hg10 mi
6:20 AM36 °FClear.3 mph100%29.95 "Hg10 mi
5:50 AM37 °FClear.3 mph100%29.95 "Hg10 mi
5:20 AM36 °FClear.5 mph100%29.95 "Hg10 mi
4:50 AM36 °FClear.2 mph100%29.95 "Hg10 mi
11:50 PM
Mon, Oct 12
46 °FPassing clouds.5 mph76%29.98 "HgN/A
11:20 PM46 °FClear.5 mph76%29.95 "Hg10 mi
10:50 PM46 °FClear.5 mph76%29.98 "Hg10 mi
10:20 PM48 °FClear.7 mph71%29.98 "Hg10 mi
9:50 PM46 °FClear.9 mph76%29.98 "Hg10 mi
9:20 PM48 °FClear.7 mph71%29.98 "Hg10 mi
8:50 PM48 °FClear.8 mph71%29.98 "Hg10 mi
8:20 PM50 °FClear.10 mph67%29.98 "Hg10 mi
7:50 PM50 °FClear.9 mph67%29.98 "Hg10 mi
7:20 PM50 °FSunny.9 mph67%29.98 "Hg10 mi
6:50 PM52 °FSunny.8 mph62%29.98 "Hg10 mi
6:20 PM52 °FSunny.8 mph62%29.98 "Hg10 mi
5:50 PM54 °FSunny.9 mph58%29.98 "Hg10 mi
5:20 PM54 °FSunny.9 mph58%29.98 "Hg10 mi
4:50 PM55 °FPassing clouds.12 mph55%29.98 "HgN/A
4:20 PM55 °FSunny.9 mph63%29.95 "Hg10 mi
3:50 PM55 °FSunny.9 mph59%29.98 "Hg10 mi
3:20 PM55 °FPassing clouds.10 mph59%29.98 "HgN/A
Weather by CustomWeather, © 2015

See weather overviewHow to use our weather pages